Location: Passo di Treia
(43.2833°N, 13.3333°E)
Time: 02:26:07
(UTC+00:00)

Lacrosse 5 rocket - Pass Details

Date: 09 December 2019
Orbit: 465 x 632 km, 57.0° (Epoch: 26 January)

Event Time Altitude Azimuth Distance (km) Brightness Sun altitude
Rises 17:03:29 0° 252° (WSW) 2,810 6.8 -16.2°
Reaches altitude 10° 17:05:58 10° 262° (W) 1,883 5.3 -16.6°
Maximum altitude 17:09:50 33° 327° (NNW) 954 2.7 -17.3°
Enters shadow 17:11:56 20° 17° (NNE) 1,282 2.9 -17.7°
